Location: Cardiff
(53.7833°N, 113.6000°W)
Time: 10:41:36
(UTC+00:00)

AO-85 - Pass Details

Date: 11 December 2023
Orbit: 516 x 753 km, 64.8° (Epoch: 04 January)

Event Time Altitude Azimuth Distance (km) Brightness Sun altitude
Rises 02:39:29 0° 313° (NW) 2,859 ? -28.9°
Reaches altitude 10° 02:41:42 10° 310° (NW) 1,988 ? -29.2°
Enters shadow 02:44:55 43° 286° (WNW) 898 ? -29.7°
